Flag for U.S.A. Weather past 2 weeks in Elizabeth, New Jersey, U.S.A.

Now
19 °F

Passing clouds.


Feels Like: 9 °F
Forecast: 18 / 34 °F
Wind: 8 mph from Southwest

Location: Newark International Airport

Current Time: Feb 1, 2015 at 6:59:52 AM

Latest Report: Feb 1, 2015 at 5:51 AM


Visibility: 10 mi

Pressure: 30.23 "Hg

Humidity: 68%

Dew point: 10 °F

Location of ElizabethLocation

Historic Weather in Elizabeth — Graph

°F

Elizabeth temperature yesterday

Maximum temperature yesterday: 26 °F (at 2:51 PM)
Minimum temperature yesterday: 13 °F (at 6:51 AM)
Average temperature yesterday: 19 °F

Past Weeks' High & Low Weather Summary

 TemperatureHumidityPressure
High42 °F (Jan 19, 11:51 AM)100% (Jan 18, 12:59 PM)30.41 "Hg (Jan 18, 12:59 PM)
Low13 °F (Jan 31, 6:51 AM)28% (Jan 17, 2:51 PM)29.29 "Hg (Jan 24, 2:51 PM)
Average30 °F62%29.99 "Hg
* Reported Jan 17 5:51 AM — Feb 1 5:51 AM, Elizabeth, Weather by CustomWeather, © 2014

Note: Actual official high and low records may vary slightly from our data, if they occured in-between our weather recording intervals... More about our weather records

Advertising

Elizabeth weather history for previous 24 hours

 ConditionsComfort  
Time TempWeatherWind HumidityBarometerVisibility
5:51 AM
Feb 1
19 °FPassing clouds.8 mph68%30.23 "Hg10 mi
4:51 AM17 °FPassing clouds.5 mph68%30.21 "Hg10 mi
3:51 AM19 °FPassing clouds.7 mph65%30.21 "Hg10 mi
2:51 AM18 °FPassing clouds.7 mph62%30.21 "Hg10 mi
1:51 AM19 °FPassing clouds.7 mph57%30.22 "Hg10 mi
12:51 AM18 °FClear.9 mph59%30.22 "Hg10 mi
11:51 PM
Jan 31
19 °FClear.7 mph57%30.22 "Hg10 mi
10:51 PM19 °FClear.8 mph57%30.22 "Hg10 mi
9:51 PM20 °FClear.12 mph55%30.22 "Hg10 mi
8:51 PM21 °FClear.16 mph52%30.22 "Hg10 mi
7:51 PM22 °FPassing clouds.14 mph48%30.20 "Hg10 mi
6:51 PM23 °FPassing clouds.14 mph44%30.19 "Hg10 mi
5:51 PM23 °FPassing clouds.9 mph42%30.16 "Hg10 mi
4:51 PM25 °FSunny.16 mph35%30.14 "Hg10 mi
3:51 PM26 °FSunny.18 mph37%30.12 "Hg10 mi
2:51 PM26 °FScattered clouds.16 mph35%30.11 "Hg10 mi
1:51 PM25 °FSunny.21 mph33%30.11 "Hg10 mi
12:51 PM23 °FSunny.21 mph36%30.12 "Hg10 mi
11:51 AM22 °FSunny.21 mph42%30.15 "Hg10 mi
10:51 AM19 °FSunny.21 mph41%30.16 "Hg10 mi
9:51 AM16 °FSunny.21 mph45%30.15 "Hg10 mi
8:51 AM15 °FSunny.17 mph44%30.15 "Hg10 mi
7:51 AM13 °FPassing clouds.14 mph49%30.14 "Hg10 mi
6:51 AM13 °FPassing clouds.16 mph51%30.12 "Hg10 mi
Weather by CustomWeather, © 2014

See weather overviewHow to use our weather pages